| time (UTC) | temp F | wind direction | speed MPH | gust MPH | rain 1hr in | rain 24hr in | rain mn in | humidity % | barometer mb |
| 20260506050957 | 58 | 190 | 2.0 | 9.0 | 0.00 | 0.00 | 0.00 | 83 | 1010.4 |
| 20260506050456 | 58 | 83 | 2.0 | 9.0 | 0.00 | 0.00 | 0.00 | 83 | 1010.3 |
| 20260506044956 | 58 | 80 | 2.0 | 9.0 | 0.00 | 0.00 | 0.00 | 83 | 1010.6 |
| 20260506044457 | 58 | 339 | 2.0 | 9.0 | 0.00 | 0.00 | 0.00 | 83 | 1010.6 |
| 20260506043957 | 58 | 355 | 2.0 | 9.0 | 0.00 | 0.00 | 0.00 | 83 | 1010.7 |
| 20260506043457 | 58 | 150 | 2.0 | 5.0 | 0.00 | 0.00 | 0.00 | 82 | 1010.7 |
| 20260506043001 | 58 | 194 | 2.0 | 6.0 | 0.00 | 0.00 | 0.00 | 82 | 1010.6 |
| 20260506042957 | 58 | 106 | 2.0 | 4.0 | 0.00 | 0.00 | 0.00 | 82 | 1010.6 |
| 20260506041957 | 58 | 70 | 2.0 | 6.0 | 0.00 | 0.00 | 0.00 | 81 | 1010.6 |
| 20260506041457 | 59 | 142 | 1.0 | 5.0 | 0.00 | 0.00 | 0.00 | 81 | 1010.6 |
| 20260506041003 | 59 | 26 | 2.0 | 8.0 | 0.00 | 0.00 | 0.00 | 80 | 1010.5 |
| 20260506040957 | 59 | 90 | 2.0 | 8.0 | 0.00 | 0.00 | 0.00 | 81 | 1010.6 |
| 20260506035955 | 59 | 67 | 2.0 | 8.0 | 0.00 | 0.00 | 0.00 | 80 | 1010.5 |
| 20260506035454 | 59 | 83 | 2.0 | 8.0 | 0.00 | 0.00 | 0.00 | 80 | 1010.5 |
| 20260506034954 | 59 | 29 | 2.0 | 7.0 | 0.00 | 0.00 | 0.00 | 80 | 1010.4 |
| 20260506034500 | 58 | 34 | 2.0 | 8.0 | 0.00 | 0.00 | 0.00 | 80 | 1010.3 |
| 20260506034455 | 58 | 271 | 2.0 | 8.0 | 0.00 | 0.00 | 0.00 | 80 | 1010.4 |
| 20260506033454 | 58 | 205 | 2.0 | 9.0 | 0.00 | 0.00 | 0.00 | 79 | 1010.3 |
| 20260506032954 | 58 | 15 | 2.0 | 9.0 | 0.00 | 0.00 | 0.00 | 79 | 1010.4 |
| 20260506032501 | 58 | 54 | 2.0 | 6.0 | 0.00 | 0.00 | 0.00 | 79 | 1010.4 |
| 20260506032454 | 58 | 13 | 2.0 | 6.0 | 0.00 | 0.00 | 0.00 | 79 | 1010.3 |
| 20260506031455 | 58 | 142 | 2.0 | 5.0 | 0.00 | 0.00 | 0.00 | 79 | 1010.4 |
| 20260506030957 | 58 | 14 | 2.0 | 8.0 | 0.00 | 0.00 | 0.00 | 78 | 1010.3 |
| 20260506030953 | 58 | 45 | 2.0 | 8.0 | 0.00 | 0.00 | 0.00 | 78 | 1010.4 |
| 20260506025951 | 58 | 61 | 2.0 | 7.0 | 0.00 | 0.00 | 0.00 | 78 | 1010.3 |
| 20260506025452 | 58 | 96 | 2.0 | 7.0 | 0.00 | 0.00 | 0.00 | 78 | 1010.3 |
| 20260506024954 | 58 | 255 | 2.0 | 5.0 | 0.00 | 0.00 | 0.00 | 78 | 1010.4 |
| 20260506024452 | 58 | 32 | 2.0 | 5.0 | 0.00 | 0.00 | 0.00 | 78 | 1010.4 |
| 20260506023954 | 58 | 31 | 2.0 | 5.0 | 0.00 | 0.00 | 0.00 | 78 | 1010.3 |
| 20260506023458 | 58 | 273 | 2.0 | 6.0 | 0.00 | 0.00 | 0.00 | 78 | 1010.3 |
| 20260506023452 | 58 | 244 | 2.0 | 6.0 | 0.00 | 0.00 | 0.00 | 78 | 1010.3 |
| 20260506022452 | 58 | 189 | 2.0 | 6.0 | 0.00 | 0.00 | 0.00 | 78 | 1010.2 |
| 20260506021951 | 58 | 69 | 2.0 | 6.0 | 0.00 | 0.00 | 0.00 | 78 | 1010.2 |
| 20260506021452 | 58 | 171 | 2.0 | 5.0 | 0.00 | 0.00 | 0.00 | 78 | 1010.1 |
| 20260506020951 | 58 | 161 | 1.0 | 4.0 | 0.00 | 0.00 | 0.00 | 78 | 1010.3 |
| 20260506020447 | 58 | 32 | 1.0 | 10.0 | 0.00 | 0.00 | 0.00 | 78 | 1010.3 |
| 20260506015948 | 58 | 46 | 1.0 | 10.0 | 0.00 | 0.00 | 0.00 | 79 | 1010.3 |
| 20260506015447 | 58 | 5 | 1.0 | 3.0 | 0.00 | 0.00 | 0.00 | 78 | 1010.4 |
| 20260506014951 | 59 | 187 | 1.0 | 4.0 | 0.00 | 0.00 | 0.00 | 78 | 1010.4 |
| 20260506014945 | 59 | 5 | 1.0 | 4.0 | 0.00 | 0.00 | 0.00 | 78 | 1010.4 |
| 20260506013947 | 59 | 80 | 1.0 | 5.0 | 0.00 | 0.00 | 0.00 | 78 | 1010.2 |
| 20260506013451 | 59 | 151 | 1.0 | 8.0 | 0.00 | 0.00 | 0.00 | 78 | 1010.1 |
| 20260506013447 | 59 | 257 | 1.0 | 5.0 | 0.00 | 0.00 | 0.00 | 78 | 1010.1 |
| 20260506013103 | 59 | 5 | 1.0 | 8.0 | 0.00 | 0.00 | 0.00 | 78 | 1009.9 |
| 20260506011945 | 59 | 97 | 2.0 | 6.0 | 0.00 | 0.00 | 0.00 | 78 | 1009.9 |
| 20260506011451 | 59 | 5 | 2.0 | 6.0 | 0.00 | 0.00 | 0.00 | 78 | 1009.9 |
| 20260506011447 | 59 | 97 | 2.0 | 6.0 | 0.00 | 0.00 | 0.00 | 78 | 1009.9 |
| 20260506011101 | 59 | 59 | 2.0 | 7.0 | 0.00 | 0.00 | 0.00 | 78 | 1009.8 |
| 20260506005947 | 59 | 59 | 2.0 | 9.0 | 0.00 | 0.00 | 0.00 | 77 | 1009.8 |
| 20260506005445 | 59 | 83 | 1.0 | 9.0 | 0.00 | 0.00 | 0.00 | 78 | 1009.7 |
| 20260506004945 | 59 | 319 | 2.0 | 6.0 | 0.00 | 0.00 | 0.00 | 77 | 1009.7 |
| 20260506004445 | 59 | 57 | 2.0 | 6.0 | 0.00 | 0.00 | 0.00 | 77 | 1009.6 |
| 20260506003945 | 59 | 68 | 2.0 | 6.0 | 0.00 | 0.00 | 0.00 | 77 | 1009.6 |
| 20260506003448 | 59 | 177 | 2.0 | 6.0 | 0.00 | 0.00 | 0.00 | 77 | 1009.5 |
| 20260506002947 | 59 | 80 | 1.0 | 10.0 | 0.00 | 0.00 | 0.00 | 77 | 1009.4 |
| 20260506002446 | 59 | 65 | 1.0 | 11.0 | 0.00 | 0.00 | 0.00 | 76 | 1009.3 |
| 20260506001945 | 59 | 303 | 1.0 | 11.0 | 0.00 | 0.00 | 0.00 | 76 | 1009.3 |
| 20260506001446 | 59 | 54 | 2.0 | 9.0 | 0.00 | 0.00 | 0.00 | 76 | 1009.2 |
| 20260506000947 | 60 | 53 | 2.0 | 9.0 | 0.00 | 0.00 | 0.00 | 76 | 1009.0 |
| 20260506000446 | 60 | 59 | 2.0 | 6.0 | 0.00 | 0.00 | 0.00 | 75 | 1008.8 |
| 20260505235947 | 60 | 203 | 2.0 | 6.0 | 0.00 | 0.00 | 0.00 | 75 | 1008.7 |
| 20260505235446 | 60 | 70 | 2.0 | 6.0 | 0.00 | 0.00 | 0.00 | 74 | 1008.7 |
| 20260505234945 | 60 | 64 | 2.0 | 5.0 | 0.00 | 0.00 | 0.00 | 74 | 1008.9 |
| 20260505234444 | 61 | 309 | 2.0 | 6.0 | 0.00 | 0.00 | 0.00 | 73 | 1008.8 |
| 20260505233944 | 61 | 65 | 2.0 | 6.0 | 0.00 | 0.00 | 0.00 | 73 | 1008.8 |
| 20260505233444 | 61 | 53 | 2.0 | 8.0 | 0.00 | 0.00 | 0.00 | 72 | 1008.7 |
| 20260505232943 | 62 | 132 | 2.0 | 9.0 | 0.00 | 0.00 | 0.00 | 72 | 1008.7 |
| 20260505232448 | 62 | 202 | 3.0 | 8.0 | 0.00 | 0.00 | 0.00 | 71 | 1008.5 |
| 20260505232444 | 62 | 196 | 2.0 | 9.0 | 0.00 | 0.00 | 0.00 | 72 | 1008.6 |
| 20260505232104 | 63 | 313 | 2.0 | 10.0 | 0.00 | 0.00 | 0.00 | 70 | 1008.2 |
| 20260505231445 | 62 | 257 | 2.0 | 10.0 | 0.00 | 0.00 | 0.00 | 71 | 1008.6 |
| 20260505231107 | 63 | 9 | 3.0 | 14.0 | 0.00 | 0.00 | 0.00 | 69 | 1007.7 |
| 20260505231102 | 63 | 0 | 2.0 | 14.0 | 0.00 | 0.00 | 0.00 | 70 | 1008.0 |
| 20260505230101 | 64 | 44 | 3.0 | 10.0 | 0.00 | 0.00 | 0.00 | 68 | 1007.7 |
| 20260505224943 | 64 | 340 | 2.0 | 6.0 | 0.00 | 0.00 | 0.00 | 68 | 1007.7 |
| 20260505224445 | 65 | 115 | 2.0 | 5.0 | 0.00 | 0.00 | 0.00 | 67 | 1007.8 |
| 20260505223942 | 65 | 115 | 2.0 | 5.0 | 0.00 | 0.00 | 0.00 | 67 | 1007.8 |
| 20260505223441 | 66 | 118 | 2.0 | 8.0 | 0.00 | 0.00 | 0.00 | 66 | 1007.9 |
| 20260505222942 | 66 | 105 | 2.0 | 10.0 | 0.00 | 0.00 | 0.00 | 64 | 1008.0 |
| 20260505222441 | 67 | 214 | 2.0 | 10.0 | 0.00 | 0.00 | 0.00 | 63 | 1007.7 |
| 20260505221945 | 68 | 9 | 2.0 | 6.0 | 0.00 | 0.00 | 0.00 | 61 | 1007.7 |
| 20260505221940 | 67 | 12 | 2.0 | 9.0 | 0.00 | 0.00 | 0.00 | 62 | 1007.7 |
| 20260505220940 | 68 | 40 | 2.0 | 6.0 | 0.00 | 0.00 | 0.00 | 61 | 1007.7 |
| 20260505220439 | 68 | 57 | 3.0 | 9.0 | 0.00 | 0.00 | 0.00 | 60 | 1007.5 |
| 20260505215939 | 69 | 175 | 3.0 | 9.0 | 0.00 | 0.00 | 0.00 | 60 | 1007.4 |
| 20260505215445 | 70 | 219 | 2.0 | 7.0 | 0.00 | 0.00 | 0.00 | 58 | 1007.3 |
| 20260505215438 | 69 | 49 | 3.0 | 8.0 | 0.00 | 0.00 | 0.00 | 59 | 1007.4 |
| 20260505215056 | 70 | 39 | 2.0 | 8.0 | 0.00 | 0.00 | 0.00 | 59 | 1007.2 |
| 20260505214555 | 70 | 165 | 2.0 | 8.0 | 0.00 | 0.00 | 0.00 | 58 | 1007.3 |
| 20260505213437 | 70 | 336 | 3.0 | 10.0 | 0.00 | 0.00 | 0.00 | 59 | 1007.2 |
| 20260505212938 | 70 | 78 | 3.0 | 10.0 | 0.00 | 0.00 | 0.00 | 58 | 1007.4 |
| 20260505212437 | 70 | 80 | 3.0 | 11.0 | 0.00 | 0.00 | 0.00 | 59 | 1007.3 |
| 20260505211937 | 70 | 311 | 3.0 | 11.0 | 0.00 | 0.00 | 0.00 | 59 | 1007.3 |
| 20260505211442 | 70 | 145 | 2.0 | 6.0 | 0.00 | 0.00 | 0.00 | 59 | 1007.3 |
| 20260505211436 | 70 | 40 | 3.0 | 12.0 | 0.00 | 0.00 | 0.00 | 60 | 1007.4 |
| 20260505211052 | 70 | 196 | 3.0 | 17.0 | 0.00 | 0.00 | 0.00 | 59 | 1007.2 |
| 20260505210556 | 70 | 222 | 3.0 | 17.0 | 0.00 | 0.00 | 0.00 | 59 | 1007.2 |
| 20260505205435 | 70 | 205 | 3.0 | 12.0 | 0.00 | 0.00 | 0.00 | 59 | 1007.2 |
| 20260505204936 | 71 | 145 | 3.0 | 11.0 | 0.00 | 0.00 | 0.00 | 58 | 1007.3 |
| 20260505204441 | 71 | 231 | 3.0 | 13.0 | 0.00 | 0.00 | 0.00 | 56 | 1007.4 |
| 20260505204436 | 71 | 342 | 3.0 | 13.0 | 0.00 | 0.00 | 0.00 | 58 | 1007.4 |
| 20260505203435 | 72 | 168 | 3.0 | 13.0 | 0.00 | 0.00 | 0.00 | 55 | 1007.3 |
| 20260505202936 | 72 | 16 | 3.0 | 9.0 | 0.00 | 0.00 | 0.00 | 56 | 1007.3 |
| 20260505202436 | 73 | 203 | 3.0 | 9.0 | 0.00 | 0.00 | 0.00 | 56 | 1007.5 |
| 20260505201933 | 73 | 184 | 2.0 | 6.0 | 0.00 | 0.00 | 0.00 | 54 | 1007.4 |
| 20260505201433 | 73 | 63 | 2.0 | 6.0 | 0.00 | 0.00 | 0.00 | 55 | 1007.3 |
| 20260505200932 | 73 | 49 | 2.0 | 8.0 | 0.00 | 0.00 | 0.00 | 54 | 1007.3 |
| 20260505200434 | 73 | 139 | 2.0 | 10.0 | 0.00 | 0.00 | 0.00 | 55 | 1007.2 |
| 20260505195934 | 73 | 123 | 3.0 | 10.0 | 0.00 | 0.00 | 0.00 | 55 | 1007.4 |
| 20260505195433 | 73 | 140 | 3.0 | 10.0 | 0.00 | 0.00 | 0.00 | 55 | 1007.4 |
| 20260505194934 | 73 | 166 | 3.0 | 10.0 | 0.00 | 0.00 | 0.00 | 54 | 1007.4 |
| 20260505194434 | 74 | 160 | 3.0 | 6.0 | 0.00 | 0.00 | 0.00 | 51 | 1007.5 |
| 20260505193934 | 75 | 177 | 3.0 | 7.0 | 0.00 | 0.00 | 0.00 | 53 | 1007.5 |
| 20260505193430 | 75 | 129 | 3.0 | 10.0 | 0.00 | 0.00 | 0.00 | 52 | 1007.5 |
| 20260505192932 | 75 | 162 | 3.0 | 10.0 | 0.00 | 0.00 | 0.00 | 51 | 1007.5 |
| 20260505192431 | 75 | 156 | 3.0 | 10.0 | 0.00 | 0.00 | 0.00 | 50 | 1007.4 |
| 20260505191932 | 75 | 131 | 3.0 | 10.0 | 0.00 | 0.00 | 0.00 | 50 | 1007.3 |
| 20260505191434 | 76 | 36 | 3.0 | 9.0 | 0.00 | 0.00 | 0.00 | 49 | 1007.3 |
| 20260505191429 | 76 | 51 | 3.0 | 10.0 | 0.00 | 0.00 | 0.00 | 52 | 1007.2 |
| 20260505190430 | 77 | 9 | 3.0 | 9.0 | 0.00 | 0.00 | 0.00 | 49 | 1007.4 |
| 20260505185927 | 77 | 178 | 3.0 | 7.0 | 0.00 | 0.00 | 0.00 | 50 | 1007.3 |
| 20260505185426 | 78 | 73 | 3.0 | 8.0 | 0.00 | 0.00 | 0.00 | 48 | 1007.4 |
| 20260505184928 | 78 | 89 | 2.0 | 8.0 | 0.00 | 0.00 | 0.00 | 47 | 1007.4 |
| 20260505184426 | 79 | 136 | 2.0 | 5.0 | 0.00 | 0.00 | 0.00 | 48 | 1007.5 |
| 20260505183927 | 79 | 178 | 2.0 | 9.0 | 0.00 | 0.00 | 0.00 | 48 | 1007.4 |
| 20260505183423 | 78 | 118 | 2.0 | 9.0 | 0.00 | 0.00 | 0.00 | 48 | 1007.5 |
| 20260505182923 | 78 | 313 | 2.0 | 9.0 | 0.00 | 0.00 | 0.00 | 47 | 1007.7 |
| 20260505182424 | 78 | 281 | 3.0 | 9.0 | 0.00 | 0.00 | 0.00 | 50 | 1007.7 |
| 20260505181923 | 78 | 334 | 3.0 | 9.0 | 0.00 | 0.00 | 0.00 | 49 | 1007.8 |
| 20260505181422 | 78 | 177 | 3.0 | 12.0 | 0.00 | 0.00 | 0.00 | 48 | 1007.8 |
| 20260505180922 | 78 | 192 | 3.0 | 12.0 | 0.00 | 0.00 | 0.00 | 49 | 1007.9 |
| 20260505180420 | 77 | 188 | 3.0 | 10.0 | 0.00 | 0.00 | 0.00 | 50 | 1008.1 |
| 20260505175921 | 77 | 63 | 3.0 | 10.0 | 0.00 | 0.00 | 0.00 | 49 | 1008.1 |
| 20260505175422 | 77 | 98 | 3.0 | 9.0 | 0.00 | 0.00 | 0.00 | 51 | 1008.3 |
| 20260505174922 | 77 | 119 | 3.0 | 9.0 | 0.00 | 0.00 | 0.00 | 49 | 1008.3 |
| 20260505174420 | 77 | 193 | 3.0 | 11.0 | 0.00 | 0.00 | 0.00 | 49 | 1008.3 |
| 20260505173922 | 77 | 114 | 3.0 | 11.0 | 0.00 | 0.00 | 0.00 | 49 | 1008.4 |
| 20260505173426 | 77 | 86 | 3.0 | 9.0 | 0.00 | 0.00 | 0.00 | 50 | 1008.4 |
| 20260505173420 | 77 | 30 | 2.0 | 10.0 | 0.00 | 0.00 | 0.00 | 49 | 1008.4 |
| 20260505173040 | 77 | 355 | 2.0 | 9.0 | 0.00 | 0.00 | 0.00 | 49 | 1008.5 |
| 20260505171922 | 77 | 76 | 2.0 | 8.0 | 0.00 | 0.00 | 0.00 | 51 | 1008.6 |
| 20260505171422 | 78 | 112 | 2.0 | 8.0 | 0.00 | 0.00 | 0.00 | 51 | 1008.4 |
| 20260505170921 | 78 | 61 | 2.0 | 9.0 | 0.00 | 0.00 | 0.00 | 50 | 1008.4 |
| 20260505170422 | 77 | 53 | 2.0 | 9.0 | 0.00 | 0.00 | 0.00 | 55 | 1008.4 |
| 20260505165921 | 77 | 294 | 2.0 | 10.0 | 0.00 | 0.00 | 0.00 | 52 | 1008.5 |
| 20260505165423 | 78 | 175 | 2.0 | 10.0 | 0.00 | 0.00 | 0.00 | 50 | 1008.7 |
| 20260505164922 | 79 | 355 | 2.0 | 6.0 | 0.00 | 0.00 | 0.00 | 50 | 1008.7 |
| 20260505164422 | 77 | 148 | 3.0 | 8.0 | 0.00 | 0.00 | 0.00 | 54 | 1008.7 |
| 20260505163923 | 78 | 113 | 2.0 | 8.0 | 0.00 | 0.00 | 0.00 | 50 | 1008.7 |
| 20260505163418 | 78 | 217 | 2.0 | 7.0 | 0.00 | 0.00 | 0.00 | 49 | 1008.8 |
| 20260505162920 | 78 | 123 | 2.0 | 9.0 | 0.00 | 0.00 | 0.00 | 49 | 1008.8 |
| 20260505162418 | 78 | 149 | 2.0 | 9.0 | 0.00 | 0.00 | 0.00 | 49 | 1008.8 |
| 20260505161919 | 78 | 191 | 2.0 | 8.0 | 0.00 | 0.00 | 0.00 | 50 | 1008.8 |
| 20260505161417 | 78 | 123 | 2.0 | 8.0 | 0.00 | 0.00 | 0.00 | 50 | 1008.9 |
| 20260505160914 | 78 | 67 | 2.0 | 7.0 | 0.00 | 0.00 | 0.00 | 51 | 1008.9 |
| 20260505160412 | 77 | 107 | 2.0 | 7.0 | 0.00 | 0.00 | 0.00 | 53 | 1009.0 |
| 20260505152910 | 74 | 133 | 2.0 | 5.0 | 0.00 | 0.00 | 0.00 | 57 | 1009.0 |
| 20260505152410 | 74 | 190 | 2.0 | 5.0 | 0.00 | 0.00 | 0.00 | 56 | 1009.0 |
| 20260505151911 | 74 | 118 | 2.0 | 5.0 | 0.00 | 0.00 | 0.00 | 57 | 1009.0 |
| 20260505151410 | 74 | 215 | 2.0 | 5.0 | 0.00 | 0.00 | 0.00 | 56 | 1009.1 |
| 20260505150910 | 75 | 214 | 2.0 | 5.0 | 0.00 | 0.00 | 0.00 | 56 | 1009.2 |
| 20260505150410 | 74 | 77 | 2.0 | 5.0 | 0.00 | 0.00 | 0.00 | 57 | 1009.3 |
| 20260505124903 | 64 | 126 | 2.0 | 5.0 | 0.00 | 0.00 | 0.00 | 72 | 1009.8 |
| 20260505124404 | 63 | 42 | 2.0 | 7.0 | 0.00 | 0.00 | 0.00 | 73 | 1009.9 |
| 20260505123902 | 63 | 295 | 2.0 | 7.0 | 0.00 | 0.00 | 0.00 | 73 | 1010.0 |
| 20260505123402 | 63 | 170 | 2.0 | 5.0 | 0.00 | 0.00 | 0.00 | 74 | 1009.9 |
| 20260505122904 | 63 | 170 | 2.0 | 11.0 | 0.00 | 0.00 | 0.00 | 74 | 1009.8 |
| 20260505122403 | 62 | 63 | 2.0 | 11.0 | 0.00 | 0.00 | 0.00 | 75 | 1009.7 |
| 20260505121901 | 62 | 115 | 1.0 | 7.0 | 0.00 | 0.00 | 0.00 | 76 | 1009.6 |
| 20260505121401 | 61 | 173 | 2.0 | 7.0 | 0.00 | 0.00 | 0.00 | 77 | 1009.6 |
| 20260505120902 | 60 | 225 | 2.0 | 6.0 | 0.00 | 0.00 | 0.00 | 79 | 1009.7 |
| 20260505120400 | 60 | 355 | 2.0 | 8.0 | 0.00 | 0.00 | 0.00 | 80 | 1009.7 |
| 20260505115859 | 59 | 0 | 1.0 | 8.0 | 0.00 | 0.00 | 0.00 | 82 | 1009.9 |
| 20260505115400 | 58 | 0 | 1.0 | 4.0 | 0.00 | 0.00 | 0.00 | 83 | 1009.7 |
| 20260505114858 | 58 | 0 | 1.0 | 5.0 | 0.00 | 0.00 | 0.00 | 83 | 1009.7 |
| 20260505114359 | 57 | 0 | 1.0 | 5.0 | 0.00 | 0.00 | 0.00 | 85 | 1009.7 |
| 20260505113858 | 57 | 0 | 1.0 | 3.0 | 0.00 | 0.00 | 0.00 | 87 | 1009.7 |
| 20260505113356 | 56 | 0 | 1.0 | 4.0 | 0.00 | 0.00 | 0.00 | 88 | 1009.8 |
| 20260505112857 | 56 | 0 | 1.0 | 4.0 | 0.00 | 0.00 | 0.00 | 90 | 1009.8 |
| 20260505112355 | 55 | 0 | 1.0 | 3.0 | 0.00 | 0.00 | 0.00 | 91 | 1009.9 |
| 20260505111856 | 54 | 0 | 1.0 | 3.0 | 0.00 | 0.00 | 0.00 | 92 | 1009.8 |
| 20260505111355 | 54 | 0 | 1.0 | 3.0 | 0.00 | 0.00 | 0.00 | 93 | 1009.7 |
| 20260505110902 | 53 | 0 | 1.0 | 4.0 | 0.00 | 0.00 | 0.00 | 94 | 1009.7 |
| 20260505110855 | 53 | 0 | 1.0 | 4.0 | 0.00 | 0.00 | 0.00 | 93 | 1009.6 |
| 20260505101856 | 48 | 53 | 0.0 | 1.0 | 0.00 | 0.00 | 0.00 | 94 | 1009.6 |
| 20260505101356 | 48 | 53 | 0.0 | 1.0 | 0.00 | 0.00 | 0.00 | 94 | 1009.6 |
| 20260505100901 | 47 | 53 | 0.0 | 1.0 | 0.00 | 0.00 | 0.00 | 93 | 1009.6 |
| 20260505100856 | 47 | 53 | 0.0 | 1.0 | 0.00 | 0.00 | 0.00 | 93 | 1009.7 |
| 20260505100511 | 47 | 53 | 0.0 | 1.0 | 0.00 | 0.00 | 0.00 | 94 | 1009.6 |
| 20260505095400 | 47 | 54 | 0.0 | 1.0 | 0.00 | 0.00 | 0.00 | 93 | 1009.6 |
| 20260505095355 | 47 | 54 | 0.0 | 1.0 | 0.00 | 0.00 | 0.00 | 93 | 1009.6 |
| 20260505094353 | 47 | 54 | 0.0 | 1.0 | 0.00 | 0.00 | 0.00 | 93 | 1009.7 |
| 20260505093857 | 47 | 54 | 0.0 | 0.0 | 0.00 | 0.00 | 0.00 | 93 | 1009.8 |
| 20260505093852 | 47 | 54 | 0.0 | 0.0 | 0.00 | 0.00 | 0.00 | 93 | 1009.7 |
| 20260505093511 | 47 | 54 | 0.0 | 0.0 | 0.00 | 0.00 | 0.00 | 93 | 1009.7 |
| 20260505092352 | 47 | 54 | 0.0 | 0.0 | 0.00 | 0.00 | 0.00 | 92 | 1009.9 |
| 20260505091853 | 47 | 54 | 0.0 | 1.0 | 0.00 | 0.00 | 0.00 | 92 | 1009.9 |
| 20260505091354 | 47 | 54 | 0.0 | 1.0 | 0.00 | 0.00 | 0.00 | 93 | 1009.9 |
| 20260505090852 | 47 | 54 | 0.0 | 1.0 | 0.00 | 0.00 | 0.00 | 93 | 1009.9 |
| 20260505090352 | 47 | 54 | 0.0 | 1.0 | 0.00 | 0.00 | 0.00 | 92 | 1009.9 |
| 20260505085853 | 47 | 54 | 0.0 | 0.0 | 0.00 | 0.00 | 0.00 | 92 | 1009.8 |
| 20260505085352 | 47 | 54 | 0.0 | 0.0 | 0.00 | 0.00 | 0.00 | 92 | 1009.9 |
| 20260505084856 | 48 | 54 | 0.0 | 1.0 | 0.00 | 0.00 | 0.00 | 92 | 1009.9 |
| 20260505084851 | 48 | 54 | 0.0 | 1.0 | 0.00 | 0.00 | 0.00 | 92 | 1010.0 |
| 20260505083850 | 48 | 54 | 0.0 | 1.0 | 0.00 | 0.00 | 0.00 | 92 | 1009.9 |
| 20260505083350 | 48 | 54 | 0.0 | 1.0 | 0.00 | 0.00 | 0.00 | 92 | 1009.9 |
| 20260505082849 | 48 | 54 | 0.0 | 1.0 | 0.00 | 0.00 | 0.00 | 92 | 1009.8 |
| 20260505082351 | 48 | 54 | 0.0 | 1.0 | 0.00 | 0.00 | 0.00 | 92 | 1009.9 |
| 20260505081855 | 48 | 54 | 0.0 | 1.0 | 0.00 | 0.00 | 0.00 | 92 | 1009.7 |
| 20260505081850 | 48 | 54 | 0.0 | 1.0 | 0.00 | 0.00 | 0.00 | 92 | 1009.7 |
| 20260505080849 | 48 | 54 | 0.0 | 1.0 | 0.00 | 0.00 | 0.00 | 92 | 1009.8 |
| 20260505080346 | 48 | 54 | 0.0 | 1.0 | 0.00 | 0.00 | 0.00 | 92 | 1009.8 |
| 20260505075846 | 48 | 54 | 0.0 | 1.0 | 0.00 | 0.00 | 0.00 | 91 | 1009.9 |
| 20260505075346 | 48 | 54 | 0.0 | 1.0 | 0.00 | 0.00 | 0.00 | 91 | 1009.9 |
| 20260505074845 | 48 | 54 | 0.0 | 1.0 | 0.00 | 0.00 | 0.00 | 91 | 1010.0 |
| 20260505074347 | 48 | 54 | 0.0 | 1.0 | 0.00 | 0.00 | 0.00 | 91 | 1010.1 |
| 20260505073844 | 48 | 54 | 0.0 | 1.0 | 0.00 | 0.00 | 0.00 | 91 | 1010.0 |
| 20260505073345 | 48 | 54 | 0.0 | 2.0 | 0.00 | 0.00 | 0.00 | 91 | 1009.9 |
| 20260505072847 | 48 | 54 | 0.0 | 2.0 | 0.00 | 0.00 | 0.00 | 91 | 1009.9 |
| 20260505072344 | 49 | 54 | 0.0 | 1.0 | 0.00 | 0.00 | 0.00 | 91 | 1010.0 |
| 20260505071845 | 49 | 54 | 0.0 | 1.0 | 0.00 | 0.00 | 0.00 | 91 | 1009.9 |
| 20260505071346 | 49 | 54 | 0.0 | 1.0 | 0.00 | 0.00 | 0.00 | 91 | 1009.9 |
| 20260505070850 | 49 | 54 | 0.0 | 2.0 | 0.00 | 0.00 | 0.00 | 90 | 1009.9 |
| 20260505070843 | 49 | 54 | 0.0 | 1.0 | 0.00 | 0.00 | 0.00 | 90 | 1010.0 |
| 20260505070502 | 49 | 54 | 0.0 | 2.0 | 0.00 | 0.00 | 0.00 | 90 | 1009.9 |
| 20260505070001 | 49 | 54 | 0.0 | 1.0 | 0.00 | 0.00 | 0.00 | 90 | 1009.9 |
| 20260505064843 | 49 | 54 | 0.0 | 3.0 | 0.00 | 0.00 | 0.00 | 90 | 1010.0 |
| 20260505064344 | 49 | 53 | 1.0 | 3.0 | 0.00 | 0.00 | 0.00 | 90 | 1010.1 |
| 20260505063843 | 49 | 92 | 1.0 | 2.0 | 0.00 | 0.00 | 0.00 | 89 | 1010.0 |
| 20260505063344 | 49 | 92 | 0.0 | 2.0 | 0.00 | 0.00 | 0.00 | 89 | 1010.0 |
| 20260505062844 | 49 | 92 | 0.0 | 2.0 | 0.00 | 0.00 | 0.00 | 89 | 1010.1 |
| 20260505062348 | 49 | 92 | 0.0 | 3.0 | 0.00 | 0.00 | 0.00 | 89 | 1010.1 |
| 20260505062343 | 49 | 92 | 0.0 | 3.0 | 0.00 | 0.00 | 0.00 | 89 | 1010.0 |
| 20260505061342 | 49 | 339 | 0.0 | 3.0 | 0.00 | 0.00 | 0.00 | 88 | 1010.0 |
| 20260505060841 | 50 | 90 | 0.0 | 1.0 | 0.00 | 0.00 | 0.00 | 88 | 1010.1 |
| 20260505060341 | 50 | 90 | 0.0 | 2.0 | 0.00 | 0.00 | 0.00 | 88 | 1010.1 |
| 20260505055841 | 50 | 90 | 1.0 | 3.0 | 0.00 | 0.00 | 0.00 | 88 | 1010.1 |
| 20260505055339 | 50 | 90 | 0.0 | 3.0 | 0.00 | 0.00 | 0.00 | 88 | 1010.1 |
| 20260505054840 | 50 | 90 | 0.0 | 1.0 | 0.00 | 0.00 | 0.00 | 88 | 1010.1 |
| 20260505054341 | 50 | 90 | 0.0 | 2.0 | 0.00 | 0.00 | 0.00 | 88 | 1010.0 |
| 20260505053839 | 50 | 90 | 1.0 | 2.0 | 0.00 | 0.00 | 0.00 | 87 | 1010.1 |
| 20260505053340 | 50 | 90 | 0.0 | 2.0 | 0.00 | 0.00 | 0.00 | 87 | 1010.1 |
| 20260505052847 | 50 | 36 | 1.0 | 3.0 | 0.00 | 0.00 | 0.00 | 87 | 1010.1 |
| 20260505052838 | 50 | 91 | 1.0 | 3.0 | 0.00 | 0.00 | 0.00 | 87 | 1010.0 |
| 20260505052339 | 50 | 91 | 1.0 | 3.0 | 0.00 | 0.00 | 0.00 | 87 | 1010.0 |